Regional Weather Roundup
Issued by NWS

Home | Current Version | Previous Version | Graphics & Text | Print | Product List | Glossary On
Versions: 1 2 3 4 5 6 7 8 9 10 11 12 13 14 15 16 17 18 19 20 21 22 23 24 25 26 27 28 29 30 31 32 33 34 35 36 37 38 39 40 41 42 43 44 45 46 47 48 49 50
000
ASUS45 KABQ 030401
RWRNM
NEW MEXICO REGIONAL WEATHER ROUNDUP
NATIONAL WEATHER SERVICE ALBUQUERQUE NM
1000 PM MDT TUE JUN 02 2015

NOTE: "FAIR" MEANS FEW OR NO CLOUDS BELOW 12,000 FEET AGL WITH NO
       SIGNIFICANT WEATHER OR OBSTRUCTIONS TO VISION.

      THIS PRODUCT IS RELEASED AS TWO VERSIONS.  ONE VERSION NEAR
      THE TOP OF THE HOUR CONTAINING PRELIMINARY DATA FROM ALBUQUERQUE
      AND OTHER STATIONS.  A FINAL VERSION WITH ADDITIONAL DATA IS
      ISSUED ABOUT 10 MINUTES AFTER THE HOUR.

NMZ501-503-504-510>518-030500-
NORTHWEST PLATEAU/NORTHCENTRAL MOUNTAINS

CITY           SKY/WX    TMP DP  RH WIND       PRES   REMARKS
FARMINGTON     CLEAR     68  22  17 CALM      30.00R
SANTA FE       CLEAR     62  19  19 N6        30.07R
TAOS           CLEAR     55  19  24 N7        30.14S

$$
NMZ402-403-502-505>509-030500-
WESTCENTRAL MOUNTAINS/SOUTHWEST MOUNTAINS

CITY           SKY/WX    TMP DP  RH WIND       PRES   REMARKS
GALLUP         CLEAR     63  19  18 SW7       30.12R
SILVER CITY      N/A     63  21  20 N9        30.08R

$$
NMZ407-409-411-412-030500-
SOUTHERN DESERTS

CITY           SKY/WX    TMP DP  RH WIND       PRES   REMARKS
DEMING         CLEAR     76  23  14 W7        29.97R
HOLLOMAN AFB   CLEAR     78  23  13 S6        29.92R
ALAMOGORDO     CLEAR     75  18  11 SE7       29.95R
T OR C         CLEAR     78  14   9 W8        29.97R

$$
NMZ519>523-030500-
CENTRAL VALLEYS/CENTRAL HIGHLANDS

CITY           SKY/WX    TMP DP  RH WIND       PRES   REMARKS
ALBUQUERQUE    CLEAR     80  24  12 W3        30.00R
DOUBLE EAGLE   CLEAR     63  28  27 NW5       30.04R
CLINES CORNERS CLEAR     63  20  19 SW10      30.13R
BELEN          FAIR      69  22  16 NW9       29.99R
SOCORRO        NOT AVBL

$$
NMZ524>526-539-540-030500-
SOUTHCENTRAL MOUNTAINS

CITY           SKY/WX    TMP DP  RH WIND       PRES   REMARKS
RUIDOSO        NOT AVBL

$$
NMZ527>531-030500-
NORTHEAST HIGHLANDS/NORTHEAST PLAINS

CITY           SKY/WX    TMP DP  RH WIND       PRES   REMARKS
LAS VEGAS      CLEAR     63  24  22 SW8       30.12R
RATON          CLEAR     68  22  17 W13       30.02R
CLAYTON        CLEAR     62  52  69 S10       29.94R

$$
NMZ532>537-030500-
EASTCENTRAL PLAINS

CITY           SKY/WX    TMP DP  RH WIND       PRES   REMARKS
TUCUMCARI      CLEAR     69  53  56 SW10      29.90R
CANNON AFB     PTCLDY    72  58  61 S9        29.96R
CLOVIS AIRPORT CLEAR     70  59  68 S9          N/A

$$
NMZ028-029-538-030500-
SOUTHEAST PLAINS

CITY           SKY/WX    TMP DP  RH WIND       PRES   REMARKS
ROSWELL        CLEAR     81  53  37 S16       29.90R
ARTESIA        CLEAR     79  55  44 S14       29.91R
CARLSBAD       PTCLDY    77  52  41 S9        29.90R
HOBBS          PTCLDY    75  57  53 SE12      29.97R


$$


USA.gov is the U.S. government's official web portal to all federal, state and local government web resources and services.